DLH158 EDDF-EHAM

Flight info

Callsign DLH158
Flight time N/A
Altitude 34000
Route MARUN8M/25C MARUN Y152 ARPEG Z850 HMM T281 NORKU
Aircraft A320/M-SDE3FGHIRWY/LB1

Departure

Time 2026-05-05 19:46
Airport Frankfurt Main Airport (EDDF)

Arrival

Time N/A
Airport Amsterdam Airport Schiphol (EHAM)
Time Latitude Longitude Altitude Speed Heading
2026-05-05 19:12 50.04744 8.58175 368 ft 0 kts 160°
2026-05-05 19:36 50.04745 8.58175 366 ft 1 kts 159°
2026-05-05 19:37 50.04767 8.58162 364 ft 4 kts 159°
2026-05-05 19:37 50.04791 8.58145 360 ft 4 kts 146°
2026-05-05 19:37 50.04810 8.58118 358 ft 4 kts 111°
2026-05-05 19:37 50.04811 8.58089 359 ft 1 kts 70°
2026-05-05 19:38 50.04810 8.58083 359 ft 0 kts 70°
2026-05-05 19:42 50.04810 8.58084 359 ft 0 kts 70°
2026-05-05 19:42 50.04817 8.58112 362 ft 6 kts 70°
2026-05-05 19:42 50.04839 8.58204 362 ft 13 kts 70°
2026-05-05 19:42 50.04881 8.58382 361 ft 20 kts 70°
2026-05-05 19:43 50.04928 8.58588 361 ft 18 kts 80°
2026-05-05 19:43 50.04874 8.58689 362 ft 9 kts 151°
2026-05-05 19:43 50.04870 8.58692 367 ft 0 kts 153°
2026-05-05 19:44 50.04858 8.58699 363 ft 5 kts 159°
2026-05-05 19:44 50.04806 8.58731 365 ft 11 kts 159°
2026-05-05 19:45 50.04712 8.58769 369 ft 15 kts 183°
2026-05-05 19:45 50.04611 8.58747 371 ft 14 kts 202°
2026-05-05 19:45 50.04534 8.58651 371 ft 15 kts 220°
2026-05-05 19:45 50.04473 8.58522 370 ft 16 kts 249°
2026-05-05 19:46 50.04386 8.58166 368 ft 69 kts 249°
2026-05-05 19:46 50.04141 8.57138 366 ft 132 kts 249°
2026-05-05 19:46 50.03767 8.55572 534 ft 166 kts 250°
2026-05-05 19:46 50.03352 8.53845 1127 ft 173 kts 250°
2026-05-05 19:47 50.02937 8.52119 1883 ft 174 kts 250°
2026-05-05 19:47 50.02418 8.50328 2302 ft 193 kts 231°
2026-05-05 19:47 50.01259 8.49181 2767 ft 207 kts 196°
2026-05-05 19:47 49.99857 8.48612 3451 ft 209 kts 195°
2026-05-05 19:48 49.98443 8.48037 4147 ft 211 kts 195°
2026-05-05 19:48 49.97014 8.47450 4828 ft 213 kts 195°
2026-05-05 19:48 49.95571 8.46848 5465 ft 218 kts 196°
2026-05-05 19:48 49.94039 8.46161 5791 ft 241 kts 197°
2026-05-05 19:49 49.92395 8.45389 6458 ft 250 kts 200°
2026-05-05 19:49 49.91369 8.44569 6985 ft 253 kts 219°
2026-05-05 19:49 49.90172 8.41525 8070 ft 257 kts 261°
2026-05-05 19:49 49.90344 8.38783 8879 ft 261 kts 293°
2026-05-05 19:50 49.91448 8.36574 9681 ft 264 kts 326°
2026-05-05 19:50 49.93145 8.35261 10131 ft 285 kts 337°
2026-05-05 19:50 49.95048 8.34023 10428 ft 309 kts 337°
2026-05-05 19:50 49.97112 8.32699 10708 ft 331 kts 337°
2026-05-05 19:51 49.99276 8.31308 11318 ft 340 kts 337°
2026-05-05 19:51 50.01487 8.29909 12057 ft 345 kts 340°
2026-05-05 19:51 50.03833 8.29047 12789 ft 350 kts 353°
2026-05-05 19:51 50.06280 8.28991 13505 ft 354 kts
2026-05-05 19:52 50.08670 8.29763 14193 ft 359 kts 18°
2026-05-05 19:52 50.11046 8.31016 14876 ft 362 kts 18°
2026-05-05 19:52 50.13443 8.32281 15541 ft 366 kts 18°
2026-05-05 19:52 50.15869 8.33553 16197 ft 369 kts 18°
2026-05-05 19:53 50.18318 8.34835 16827 ft 373 kts 18°
2026-05-05 19:53 50.20790 8.36133 17446 ft 377 kts 18°
2026-05-05 19:53 50.23287 8.37447 18053 ft 380 kts 18°
2026-05-05 19:53 50.25806 8.38773 18645 ft 384 kts 18°
2026-05-05 19:54 50.28349 8.40113 19225 ft 388 kts 18°
2026-05-05 19:54 50.30883 8.41456 19795 ft 391 kts 19°
2026-05-05 19:54 50.33464 8.42850 20373 ft 394 kts 19°
2026-05-05 19:54 50.36066 8.44276 20953 ft 397 kts 19°
2026-05-05 19:55 50.38683 8.45715 21502 ft 401 kts 19°
2026-05-05 19:55 50.41325 8.47166 22031 ft 404 kts 19°
2026-05-05 19:55 50.43988 8.48630 22541 ft 407 kts 19°
2026-05-05 19:55 50.46672 8.50105 23042 ft 410 kts 19°
2026-05-05 19:56 50.49379 8.51549 23516 ft 413 kts 18°
2026-05-05 19:56 50.52094 8.52893 23971 ft 416 kts 17°
2026-05-05 19:56 50.54875 8.54203 24412 ft 419 kts 16°
2026-05-05 19:56 50.57676 8.55494 24844 ft 421 kts 16°
2026-05-05 19:57 50.60496 8.56791 25260 ft 424 kts 16°
2026-05-05 19:57 50.62373 8.57663 25516 ft 425 kts 16°
2026-05-05 19:57 50.66180 8.59461 26025 ft 429 kts 17°